Location: Boone Canyon
(38.3180°N, 119.2504°W)
Time: 17:16:48
(UTC+00:00)

Cosmos 1459 Rocket - Pass Details

Date: 18 September 2020
Orbit: 936 x 1001 km, 83.0° (Epoch: 19 October)

Event Time Altitude Azimuth Distance (km) Brightness Sun altitude
Rises 12:42:12 0° 354° (N) 3,630 7.1 -12.4°
Reaches altitude 10° 12:44:43 10° 356° (N) 2,674 6.4 -11.9°
Maximum altitude 12:50:50 77° 83° (E) 965 4.1 -10.8°
Drops below altitude 10° 12:56:50 10° 169° (S) 2,638 6.3 -9.6°
Sets 12:59:18 0° 171° (S) 3,578 7.0 -9.1°
